Starlink 34947

operational
NORAD ID: 65184 Int'l Des: 2025-175 Owner: SPXS Country: US Constellation: starlink
LEOCIRCULARRETROGRADESSO

Starlink 34947について

説明を読み込み中...

リアルタイム位置

3D地球を読み込み中...

次回通過

高度履歴

Altitude vs Time

uPlot chart will show altitude changes over time

軌道要素

1 65184U 25175L 25340.60778855 .00011651 00000-0 80992-3 0 9999
2 65184 97.6013 210.8981 0001825 94.8883 265.2553 15.05669230 18630
Epoch: Dec 6, 2025 • Age: 28 hours

現在のステータス

高度 553.3 km
速度 7.59 km/s
衛星直下点 34.46°N, 45.33°E
打ち上げ日 Aug 14, 2025
運用期間 0.3 years
タイプ internet

技術仕様

分類 Payload
質量 575.00 kg
乾燥質量 530.00 kg
総質量 575.00 kg
長さ 0.30 m
直径 4.10 m
スパン 29.00 m
形状 Box + pan
製造者 SPXS
バスタイプ Starlink V2MO
フェーズステータス In Orbit
所有者/国 SPXS/US

大規模コンステレーション

Loading constellations...